TheGetRank SiteMap Page 2871
Home 2821 2822 2823 2824 2825 2826 2827 2828 2829 2830 2831 2832 2833 2834 2835 2836 2837 2838 2839 2840 2841 2842 2843 2844 2845 2846 2847 2848 2849 2850 2851 2852 2853 2854 2855 2856 2857 2858 2859 2860 2861 2862 2863 2864 2865 2866 2867 2868 2869 2870 2871 2872 2873 2874 2875 2876 2877 2878 2879 2880 2881 2882 2883 2884 2885 2886 2887 2888 2889 2890 2891 2892 2893 2894 2895 2896 2897 2898 2899 2900 2901 2902 2903 2904 2905 2906 2907 2908 2909 2910 2911 2912 2913 2914 2915 2916 2917 2918 2919 2920 2921
S.NO. Website Pagerank Alexa Rank Last Updated
2870000 campisolabella.org 0 20580671 2011-09-28 20:11:11
2870001 russellforsantafe.com 0 No Rank 2011-09-28 20:11:15
2870002 ruskno.ru 0 No Rank 2011-09-28 20:11:15
2870003 runningriver.org 0 No Rank 2011-09-28 20:11:21
2870004 runningwithrover.com 0 13490129 2011-09-28 20:11:26
2870005 scienceweek.gov.au 0 2140441 2011-09-28 20:11:29
2870006 runningonemptycomic.com 0 No Rank 2011-09-28 20:11:31
2870007 rundbogenhallen.de 0 No Rank 2011-09-28 20:11:33
2870008 ruidosyruiditos.edu.uy 0 No Rank 2011-09-28 20:11:39
2870009 rumahkeramik.com 0 21688650 2011-09-28 20:11:40
2870010 atyourservice-ar.com 0 No Rank 2011-09-28 20:11:42
2870011 ruheforst-eberswalde.de 0 No Rank 2011-09-28 20:11:45
2870012 rugweaver.com 0 No Rank 2011-09-28 20:11:47
2870013 rugbyrumble.ca 0 No Rank 2011-09-28 20:11:53
2870014 ruenpair.com 0 No Rank 2011-09-28 20:11:58
2870015 rudetali.ru 0 10605998 2011-09-28 20:12:09
2870016 hwslt.com 0 7780080 2011-09-28 20:12:09
2870017 pelangsing-alami.com 0 3009000 2011-09-28 20:12:17
2870018 fobproductions.com 0 No Rank 2011-09-28 20:12:21
2870019 rugbyattorney.com 0 No Rank 2011-09-28 20:12:28
2870020 rtprocess.com 0 No Rank 2011-09-28 20:12:29
2870021 hillzpage.com 0 No Rank 2011-09-28 20:12:29
2870022 mobilematchgps.com 0 No Rank 2011-09-28 20:12:31
2870023 spb.yperochi.com 0 No Rank 2011-09-28 20:12:36
2870024 rsinternet.hr 0 No Rank 2011-09-28 20:12:38
2870025 rslightinginc.com 0 No Rank 2011-09-28 20:12:41
2870026 atwellsave.com 0 No Rank 2011-09-28 20:12:44
2870027 rsfadvisors.com 0 No Rank 2011-09-28 20:12:44
2870028 eats.emedia.com.my 0 444505 2011-09-28 20:12:45
2870029 rs96.se 0 No Rank 2011-09-28 20:12:54
2870030 hungrymedia.com.au 0 No Rank 2011-09-28 20:12:55
2870031 rs-bern.ch 0 No Rank 2011-09-28 20:12:56
2870032 atyourpaceonline.com 0 No Rank 2011-09-28 20:13:00
2870033 bostonbeerweek.org 0 9434669 2011-09-28 20:13:00
2870034 rpm-motor-sports.com 0 No Rank 2011-09-28 20:13:02
2870035 werygut.cp.cx 0 194305 2011-09-28 20:13:04
2870036 wesleyhartma25.deviantart.com 0 130 2011-09-28 20:13:04
2870037 rpg7.de 0 No Rank 2011-09-28 20:13:05
2870038 rp-marketing.com 0 No Rank 2011-09-28 20:13:11
2870039 rozwadza.fm.interia.pl 0 710 2011-09-28 20:13:16
2870040 au-pair.ge 0 19541208 2011-09-28 20:13:17
2870041 campusorgs.uci.edu 0 7595 2011-09-28 20:13:17
2870042 roywarrenministries.com 0 No Rank 2011-09-28 20:13:19
2870043 royalweddingshocker.info 0 No Rank 2011-09-28 20:13:24
2870044 royaltours.com.jo 0 6464505 2011-09-28 20:13:25
2870045 royalproplumbing.com 0 No Rank 2011-09-28 20:13:31
2870046 roy-orbison.ru 0 No Rank 2011-09-28 20:13:37
2870047 tennisclub.zaidimai.web44.net 0 36785 2011-09-28 20:13:41
2870048 rowery.torun.firmy-24h.pl 0 3548682 2011-09-28 20:13:41
2870049 roundstonebuskers.net 0 No Rank 2011-09-28 20:13:46
2870050 kimgrotzkedesigns.com 0 6111473 2011-09-28 20:13:48
2870051 rotaryhome.on.ca 0 26467891 2011-09-28 20:13:52
2870052 jerseycityimpound.com 0 No Rank 2011-09-28 20:13:52
2870053 healingdiseases.tk 0 No Rank 2011-09-28 20:13:54
2870054 rostki.pl 0 No Rank 2011-09-28 20:13:56
2870055 intimateaffairs.dealshopcenter.com 0 No Rank 2011-09-28 20:13:56
2870056 rosetravel-sd.com 0 No Rank 2011-09-28 20:13:59
2870057 rosenthal-greene.com 0 No Rank 2011-09-28 20:14:03
2870058 cheaparsegamer.com 0 3105763 2011-09-28 20:14:07
2870059 roogullydiaries.com 0 No Rank 2011-09-28 20:14:10
2870060 roofcommunityservices.org 0 No Rank 2011-09-28 20:14:15
2870061 roofrescuecontracting.com 0 5195875 2011-09-28 20:14:18
2870062 westcountyauto.com 0 24113825 2011-09-28 20:14:19
2870063 ronntorossian.com 0 555312 2011-09-28 20:14:23
2870064 ronizongor.com 0 6328208 2011-09-28 20:14:29
2870065 roncrumcompany.com 0 No Rank 2011-09-28 20:14:30
2870066 au-avtokreslo.ru 0 18236359 2011-09-28 20:14:39
2870067 ron-tokyo.ru 0 No Rank 2011-09-28 20:14:41
2870068 gisweb.azwater.gov 0 1701156 2011-09-28 20:14:44
2870069 gardenfl.blogspot.com 0 No Rank 2011-09-28 20:14:49
2870070 romaniansdating.com 0 No Rank 2011-09-28 20:14:51
2870071 roller.infos.idf.free.fr 0 207 2011-09-28 20:14:52
2870072 roi-creation.com 0 No Rank 2011-09-28 20:14:58
2870073 fivewhitedoves.com 0 No Rank 2011-09-28 20:15:04
2870074 rogershomes.com 0 No Rank 2011-09-28 20:15:05
2870075 4ak6.org 0 14262718 2011-09-28 20:15:06
2870076 auap.kakvonovo.com 0 9004959 2011-09-28 20:15:09
2870077 rogers.no 0 No Rank 2011-09-28 20:15:12
2870078 rogerodriguez.com 0 No Rank 2011-09-28 20:15:19
2870079 roja.com 0 28198827 2011-09-28 20:15:27
2870080 citydocs.fcgov.com 0 155745 2011-09-28 20:15:28
2870081 sagoen.es 0 No Rank 2011-09-28 20:15:30
2870082 allfashionmall.com 0 27978114 2011-09-28 20:15:30
2870083 rogaining.lv 0 No Rank 2011-09-28 20:15:34
2870084 roelcapital.com 0 No Rank 2011-09-28 20:15:41
2870085 ssclmall.qzone.qq.com 0 10 2011-09-28 20:15:41
2870086 dietcocacola.co.il 0 2673775 2011-09-28 20:15:45
2870087 price.linker.stahuj.to 0 21271012 2011-09-28 20:15:46
2870088 aubergedestavaillons.fr 0 28180306 2011-09-28 20:15:46
2870089 roddzilla.com 0 No Rank 2011-09-28 20:15:47
2870090 ginga-adventure.jp 0 No Rank 2011-09-28 20:15:51
2870091 arsbtc.ispace.in.th 0 364287 2011-09-28 20:15:51
2870092 vwcamperandbus.com 0 4514525 2011-09-28 20:15:54
2870093 rogerhay.com 0 No Rank 2011-09-28 20:15:54
2870094 rodbarnes.com 0 20926786 2011-09-28 20:15:56
2870095 rocoptics.com 0 No Rank 2011-09-28 20:16:05
2870096 smartwaregroup.com 0 521631 2011-09-28 20:16:05
2870097 rocksolidis.com 0 No Rank 2011-09-28 20:16:11
2870098 rcp-vsp.com 0 6415619 2011-09-28 20:16:13
2870099 rockingchairresort.com 0 14142391 2011-09-28 20:16:17
2870100 marjutrimminen.com 0 No Rank 2011-09-28 20:16:21
2870101 rockynorton.com 0 No Rank 2011-09-28 20:16:22
2870102 rockinbb.com 0 No Rank 2011-09-28 20:16:23
2870103 auto01.s334.xrea.com 0 1970 2011-09-28 20:16:27
2870104 auchranniejobs.co.uk 0 No Rank 2011-09-28 20:16:27
2870105 cronica.primatv.ro 0 156037 2011-09-28 20:16:27
2870106 rocketpower.org 0 No Rank 2011-09-28 20:16:31
2870107 tourofgenerals.com 0 15709439 2011-09-28 20:16:32
2870108 rocketrank.com 0 1338041 2011-09-28 20:16:34
2870109 dressupvillage.com 0 5642283 2011-09-28 20:16:36
2870110 rockconnection.biz 0 No Rank 2011-09-28 20:16:37
2870111 rock-n-easyranch.com 0 No Rank 2011-09-28 20:16:40
2870112 mycolorschemer.com 0 No Rank 2011-09-28 20:16:44
2870113 rochesterbusinessattorney.com 0 No Rank 2011-09-28 20:16:45
2870114 rock-n-doll.com 0 No Rank 2011-09-28 20:16:46
2870115 robinkear.com 0 No Rank 2011-09-28 20:16:49
2870116 jgenetgenomics.org 0 8241725 2011-09-28 20:16:51
2870117 robinjohnson.net 0 22140000 2011-09-28 20:16:52
2870118 aucklandposters.info 0 26546145 2011-09-28 20:16:52
2870119 robinhoodrentals.net 0 No Rank 2011-09-28 20:16:56
2870120 aucklandpainting.com 0 20899032 2011-09-28 20:17:00
2870121 robertallenlandworks.com 0 17913492 2011-09-28 20:17:05
2870122 womenslife.dahe.cn 0 2966 2011-09-28 20:17:06
2870123 zanemarshall11.livejournal.com 0 87 2011-09-28 20:17:12
2870124 ww.ebenezer.org.gt 0 1221578 2011-09-28 20:17:13
2870125 rob-bilt.com 0 10751257 2011-09-28 20:17:13
2870126 roaldogsonn.no 0 12097355 2011-09-28 20:17:20
2870127 acnescarstreatment-info.blogspot.com 0 No Rank 2011-09-28 20:17:21
2870128 blog.cosmetic-surg.com 0 4118382 2011-09-28 20:17:23
2870129 roadhouseleather.com 0 No Rank 2011-09-28 20:17:25
2870130 danbooru.donmai.us 0 11047 2011-09-28 20:17:28
2870131 robbeyblog.tk 0 28529330 2011-09-28 20:17:29
2870132 roadfishbikeshop.com 0 No Rank 2011-09-28 20:17:30
2870133 rminlandsales.com 0 No Rank 2011-09-28 20:17:38
2870134 rnpexports.com 0 No Rank 2011-09-28 20:17:39
2870135 ministryhealth.org 0 1028839 2011-09-28 20:17:42
2870136 auctionevents.com 0 No Rank 2011-09-28 20:17:44
2870137 familyfitnesscenters.net 0 9008632 2011-09-28 20:17:44
2870138 roslinysztuczne.pl 0 10596260 2011-09-28 20:17:51
2870139 rmcenter.ru 0 1597919 2011-09-28 20:17:56
2870140 rmcs.bc.ca 0 No Rank 2011-09-28 20:17:57
2870141 rlamoureux.com 0 No Rank 2011-09-28 20:18:03
2870142 dev.celebitchy.com 0 8443 2011-09-28 20:18:09
2870143 rkinfomart.com 0 10862979 2011-09-28 20:18:10
2870144 mhqd.net 0 No Rank 2011-09-28 20:18:10
2870145 rjtauto.com 0 No Rank 2011-09-28 20:18:11
2870146 comohablarenpublicoya.com 0 24540803 2011-09-28 20:18:13
2870147 riverfrontmedical.com 0 No Rank 2011-09-28 20:18:17
2870148 riyonemeth.com 0 No Rank 2011-09-28 20:18:18
2870149 festliche-floristik.de 0 2927484 2011-09-28 20:18:21
2870150 rittnersommerspiele.com 0 3740488 2011-09-28 20:18:22
2870151 www2.finescale.com 0 227468 2011-09-28 20:18:25
2870152 ritiumu.com 0 No Rank 2011-09-28 20:18:25
2870153 audiblog.nl 0 217267 2011-09-28 20:18:29
2870154 risultaticalcio.biz 0 No Rank 2011-09-28 20:18:32
2870155 rockyautoparts.com 0 No Rank 2011-09-28 20:18:34
2870156 rishon-lezion.com 0 9031449 2011-09-28 20:18:35
2870157 smallshareware.com 0 5687178 2011-09-28 20:18:43
2870158 forums.can-zaman.com 0 No Rank 2011-09-28 20:18:44
2870159 rikmertens.com 0 2360739 2011-09-28 20:18:52
2870160 rishiubrpg.org 0 No Rank 2011-09-28 20:18:52
2870161 506.okdday.com 0 7166079 2011-09-28 20:18:58
2870162 rightfitsoftware.com 0 No Rank 2011-09-28 20:18:59
2870163 rigin.info 0 No Rank 2011-09-28 20:19:00
2870164 auctionsbycas.com 0 No Rank 2011-09-28 20:19:01
2870165 gate.bjfcdt.gov.cn 0 470118 2011-09-28 20:19:04
2870166 righteousbandz.com 0 No Rank 2011-09-28 20:19:05
2870167 mcintire.instaproofs.com 0 65921 2011-09-28 20:19:10
2870168 ridgelinespecialtysports.com 0 7753793 2011-09-28 20:19:14
2870169 mcmurtry.rice.edu 0 14839 2011-09-28 20:19:14
2870170 afterburners.co.uk 0 No Rank 2011-09-28 20:19:15
2870171 ridgwaystudio.com 0 17528870 2011-09-28 20:19:18
2870172 ridetofly.com 0 18020563 2011-09-28 20:19:21
2870173 riderschapters.org 0 No Rank 2011-09-28 20:19:24
2870174 blogs.digital.udk-berlin.de 0 166634 2011-09-28 20:19:27
2870175 ridealphabikes.com 0 7921829 2011-09-28 20:19:27
2870176 073733.com 0 No Rank 2011-09-28 20:19:29
2870177 igfotografia.com 0 No Rank 2011-09-28 20:19:29
2870178 wirelesssafety.org 0 No Rank 2011-09-28 20:19:31
2870179 richmondpest.com 0 No Rank 2011-09-28 20:19:32
2870180 riddix.com 0 No Rank 2011-09-28 20:19:35
2870181 richmiceli.com 0 15389906 2011-09-28 20:19:39
2870182 richardlewisdmd.com 0 8860915 2011-09-28 20:19:41
2870183 audio-production.co.uk 0 No Rank 2011-09-28 20:19:42
2870184 richardhunter.com 0 No Rank 2011-09-28 20:19:45
2870185 ribtrader.com 0 25397147 2011-09-28 20:19:46
2870186 rhwe.org 0 No Rank 2011-09-28 20:19:50
2870187 rhynonetworks.com 0 6842276 2011-09-28 20:19:54
2870188 rhumlinemarine.com 0 No Rank 2011-09-28 20:19:59
2870189 ciaraleeming.co.uk 0 9131089 2011-09-28 20:20:00
2870190 rhonda-byrne-the-power.com 0 No Rank 2011-09-28 20:20:01
2870191 lojascoppel.com.br 0 3368689 2011-09-28 20:20:03
2870192 shootyourmouth.com 0 No Rank 2011-09-28 20:20:14
2870193 rhino56.com 0 9696706 2011-09-28 20:20:32
2870194 online-shop4all.de 0 2958304 2011-09-28 20:20:34
2870195 ebspay.ebstime.com 0 13804456 2011-09-28 20:20:37
2870196 rh-organisation.fr 0 9068118 2011-09-28 20:20:38
2870197 rgharriman.com 0 No Rank 2011-09-28 20:20:41
2870198 rezekiinternet.net 0 No Rank 2011-09-28 20:20:42
2870199 blog.andalucia.com 0 38256 2011-09-28 20:20:45
2870200 revupwealth.com 0 No Rank 2011-09-28 20:20:48
2870201 revveduptv.com 0 19734681 2011-09-28 20:20:48
2870202 ameer2011.com 0 No Rank 2011-09-28 20:20:52
2870203 revolutionfest.de 0 No Rank 2011-09-28 20:20:53
2870204 calvarymemphis.org 0 16230556 2011-09-28 20:20:53
2870205 revjoanna.com 0 No Rank 2011-09-28 20:20:54
2870206 revitol-stretchmarkcream.org 0 No Rank 2011-09-28 20:20:59
2870207 audiobook-download.net 0 No Rank 2011-09-28 20:21:03
2870208 reversephonedetectiveonline.com 0 No Rank 2011-09-28 20:21:05
2870209 canna.lhosting.info 0 475018 2011-09-28 20:21:06
2870210 bestmoneymakingbusiness.blogspot.com 0 12449628 2011-09-28 20:21:11
2870211 reverepep.org 0 No Rank 2011-09-28 20:21:13
2870212 gra-na-gieldzie.pl 0 No Rank 2011-09-28 20:21:14
2870213 blog.circlepix.com 0 78462 2011-09-28 20:21:18
2870214 rettl.at 0 No Rank 2011-09-28 20:21:20
2870215 audiobook-downloads.com 0 No Rank 2011-09-28 20:21:24
2870216 retrieverinsurance.com 0 No Rank 2011-09-28 20:21:27
2870217 fredericksands.com 0 No Rank 2011-09-28 20:21:27
2870218 result.toastit-live.be 0 6246524 2011-09-28 20:21:33
2870219 reviewprofitbonus.com 0 No Rank 2011-09-28 20:21:33
2870220 www2.classbook.com 0 1131835 2011-09-28 20:21:34
2870221 audioaccessradio.com 0 14171810 2011-09-28 20:21:38
2870222 muskymansports.com 0 19482726 2011-09-28 20:21:38
2870223 restitutor.am 0 No Rank 2011-09-28 20:21:41
2870224 restoredmoments.com 0 6924876 2011-09-28 20:21:45
2870225 testinfidelity.com 0 8605694 2011-09-28 20:21:48
2870226 restaurantrosalie77.com 0 No Rank 2011-09-28 20:21:50
2870227 restaurantayurveda.com 0 14405791 2011-09-28 20:21:52
2870228 tuts.flashmint.com 0 11543 2011-09-28 20:21:55
2870229 responsiveautoglass.com 0 No Rank 2011-09-28 20:21:55
2870230 resolvesoftware.com 0 21651512 2011-09-28 20:22:00
2870231 guava-treasury.com 0 No Rank 2011-09-28 20:22:02
2870232 resindolls.net 0 19552237 2011-09-28 20:22:05
2870233 resil.com 0 4865791 2011-09-28 20:22:09
2870234 residencenemo.com 0 No Rank 2011-09-28 20:22:12
2870235 residaimmo.ch 0 No Rank 2011-09-28 20:22:17
2870236 rescueclean.com 0 No Rank 2011-09-28 20:22:19
2870237 maxforce-al.com.br 0 No Rank 2011-09-28 20:22:20
2870238 filop.russerialy.ru 0 2690314 2011-09-28 20:22:23
2870239 reputa.gentina.com.ar 0 20781924 2011-09-28 20:22:24
2870240 repowersolutions.com 0 16239130 2011-09-28 20:22:28
2870241 forum.autorally.ro 0 918434 2011-09-28 20:22:31
2870242 reo-coker.info 0 No Rank 2011-09-28 20:22:33
2870243 repairbkffile.com 0 No Rank 2011-09-28 20:22:34
2870244 dragonfireworks.zaidimai.web44.net 0 36785 2011-09-28 20:22:38
2870245 audiobook1.net 0 26475353 2011-09-28 20:22:39
2870246 rentbonitavillage.com 0 23312316 2011-09-28 20:22:40
2870247 renuspa.ca 0 22656715 2011-09-28 20:22:43
2870248 cellphoneonlinestore.com 0 18867972 2011-09-28 20:22:44
2870249 enamel-germany.com 0 No Rank 2011-09-28 20:22:44
2870250 rennington.com 0 No Rank 2011-09-28 20:22:49
2870251 rentalvehiclesnewzealand.com 0 6782354 2011-09-28 20:22:50
2870252 alltradingpins.com 0 No Rank 2011-09-28 20:22:54
2870253 reni.biz.pl 0 13487056 2011-09-28 20:22:59
2870254 bedbugblaster.co.uk 0 5692561 2011-09-28 20:23:02
2870255 renchat.com 0 No Rank 2011-09-28 20:23:05
2870256 baito.zaidimai.web44.net 0 36785 2011-09-28 20:23:06
2870257 carblog.cars2050.com 0 10649610 2011-09-28 20:23:09
2870258 webportal.fcds.org 0 3202450 2011-09-28 20:23:10
2870259 ren-book.com 0 No Rank 2011-09-28 20:23:12
2870260 renaissancemedievalcostumes.com 0 No Rank 2011-09-28 20:23:14
2870261 remotepigtails.com 0 No Rank 2011-09-28 20:23:18
2870262 technotheology.org 0 No Rank 2011-09-28 20:23:19
2870263 remorse3.com 0 No Rank 2011-09-28 20:23:19
2870264 remcovandonk.com 0 No Rank 2011-09-28 20:23:27
2870265 dixielilyfoods.com 0 No Rank 2011-09-28 20:23:28
2870266 remontmsk.su 0 10327213 2011-09-28 20:23:30
2870267 reliabletechnologysupport.com 0 17725061 2011-09-28 20:23:35
2870268 lithcoproducts.com 0 5968896 2011-09-28 20:23:36
2870269 relaxing-in-estespark.com 0 No Rank 2011-09-28 20:23:39
2870270 relatos.gentina.com.ar 0 20781924 2011-09-28 20:23:40
2870271 relationto.com 0 No Rank 2011-09-28 20:23:53
2870272 americafunding.net 0 No Rank 2011-09-28 20:23:54
2870273 iqfd.taobao.com 0 16 2011-09-28 20:23:57
2870274 relaisdulacnoir.com 0 11567791 2011-09-28 20:24:00
2870275 rejuvtouchmassage.com 0 18943564 2011-09-28 20:24:00
2870276 regionaladmissions.com 0 18737968 2011-09-28 20:24:08
2870277 bedbugstreatmentinfo.org 0 27081832 2011-09-28 20:24:09
2870278 reginahondask.com 0 No Rank 2011-09-28 20:24:14
2870279 portaldecasinos.es 0 1242201 2011-09-28 20:24:15
2870280 reginaw.com 0 No Rank 2011-09-28 20:24:15
2870281 meteo.elkhabar.com 0 2224 2011-09-28 20:24:21
2870282 redyellowsun.com 0 No Rank 2011-09-28 20:24:26
2870283 xxx.filedonkey.com 0 286505 2011-09-28 20:24:31
2870284 redpineoutdoor.com 0 6454898 2011-09-28 20:24:32
2870285 reflectionsouthwest.com 0 25495711 2011-09-28 20:24:33
2870286 redlsauto.com 0 No Rank 2011-09-28 20:24:37
2870287 redlightcameraspray.com 0 19280506 2011-09-28 20:24:43
2870288 forums.aqstats.com 0 1225481 2011-09-28 20:24:44
2870289 redlightcamdetector.com 0 No Rank 2011-09-28 20:24:49
2870290 redhookhouses.com 0 No Rank 2011-09-28 20:24:57
2870291 konzertpublikum.de 0 No Rank 2011-09-28 20:25:00
2870292 redmanpools.com 0 1681606 2011-09-28 20:25:03
2870293 reddipper.com 0 6168187 2011-09-28 20:25:07
2870294 bedcheck.weebly.com 0 No Rank 2011-09-28 20:25:09
2870295 reddcore.com 0 No Rank 2011-09-28 20:25:11
2870296 reddawn2010.org 0 No Rank 2011-09-28 20:25:16
2870297 redcapemarketing.com 0 No Rank 2011-09-28 20:25:16
2870298 jasminecompany.com 0 No Rank 2011-09-28 20:25:19
2870299 top10-top20-top50.blogspot.com 0 No Rank 2011-09-28 20:25:19
2870300 bauchspeck-abnehmen.de 0 5639207 2011-09-28 20:25:19
2870301 recycledproductsco.com 0 No Rank 2011-09-28 20:25:23
2870302 redboxfranchisecost.com 0 2161931 2011-09-28 20:25:24
2870303 customer.esker.com 0 547367 2011-09-28 20:25:26
2870304 siwanoydadsclub.org 0 No Rank 2011-09-28 20:25:27
2870305 rectech.org 0 24454908 2011-09-28 20:25:29
2870306 recovery-systems.org 0 19842452 2011-09-28 20:25:30
2870307 enciclopediager.com 0 No Rank 2011-09-28 20:25:37
2870308 niketechxtremeregular.blogspot.com 0 No Rank 2011-09-28 20:25:39
2870309 recherche-logement.fr 0 6519416 2011-09-28 20:25:39
2870310 rebelbelleweddings.com 0 12312172 2011-09-28 20:25:42
2870311 munsonmachinery.com 0 2520223 2011-09-28 20:25:48
2870312 reaperawards.com 0 No Rank 2011-09-28 20:25:51
2870313 cancomsolutions.com 0 5790149 2011-09-28 20:25:55
2870314 realwritingjobs.org 0 2180731 2011-09-28 20:25:56
2870315 realtrade.hu 0 No Rank 2011-09-28 20:25:57
2870316 islandsofloreto.com 0 No Rank 2011-09-28 20:26:00
2870317 realestatetiming.com 0 8264705 2011-09-28 20:26:03
2870318 reality-sever.cz 0 No Rank 2011-09-28 20:26:03
2870319 members.bizland.com 0 31306 2011-09-28 20:26:13
2870320 bedford-plumber-gas-heating-engineer.co.uk 0 No Rank 2011-09-28 20:26:15
2870321 realcountry.write2me.nl 0 264166 2011-09-28 20:26:17
2870322 bankatfsb.com 0 No Rank 2011-09-28 20:26:20
2870323 ps.eagleschools.net 0 3881283 2011-09-28 20:26:21
2870324 readittexas.com 0 No Rank 2011-09-28 20:26:21
2870325 conserveturtles.org 0 1053952 2011-09-28 20:26:25
2870326 rdsandsons.com 0 No Rank 2011-09-28 20:26:26
2870327 rdkcontracting.com 0 No Rank 2011-09-28 20:26:28
2870328 rcep.org 0 19636015 2011-09-28 20:26:31
2870329 rccspcertificationexams.com 0 No Rank 2011-09-28 20:26:32
2870330 pressonline.sho.com 0 10324 2011-09-28 20:26:34
2870331 beddingmattressfoam.com 0 2910370 2011-09-28 20:26:40
2870332 rawbite.dk 0 16237469 2011-09-28 20:26:43
2870333 raw3h.net 0 363668 2011-09-28 20:26:43
2870334 madmousemedia.co.uk 0 19064530 2011-09-28 20:26:47
2870335 raveanime.com 0 No Rank 2011-09-28 20:26:48
2870336 ravcopeinture.com 0 No Rank 2011-09-28 20:26:53
2870337 ravaganza.com 0 No Rank 2011-09-28 20:26:54
2870338 rattvikstryckeri.se 0 11008600 2011-09-28 20:27:01
2870339 quartiervieiralves.com.br 0 3759153 2011-09-28 20:27:04
2870340 ratucinta.com 0 No Rank 2011-09-28 20:27:04
2870341 ratnagiri.org 0 8621975 2011-09-28 20:27:05
2870342 fotobuch-fotokalender.com 0 No Rank 2011-09-28 20:27:11
2870343 med-pharmachina.com 0 12209383 2011-09-28 20:27:13
2870344 ratecalculatormortgage.org 0 No Rank 2011-09-28 20:27:15
2870345 rateuhousing.com 0 15304254 2011-09-28 20:27:19
2870346 8bc.org 0 285584 2011-09-28 20:27:22
2870347 rappermaddmaxx.com 0 No Rank 2011-09-28 20:27:24
2870348 rapidtestingclinic.com 0 No Rank 2011-09-28 20:27:27
2870349 rapid-i.com 0 183675 2011-09-28 20:27:32
2870350 rannriders.com 0 3046166 2011-09-28 20:27:33
2870351 rankconsultinggroup.com 0 19439943 2011-09-28 20:27:39
2870352 airconservicing.com 0 6701140 2011-09-28 20:27:40
2870353 randyjonesagency.com 0 No Rank 2011-09-28 20:27:42
2870354 bashful.ccsdk12.org 0 3151537 2011-09-28 20:27:44
2870355 randydmullins.com 0 No Rank 2011-09-28 20:27:45
2870356 randallwatters.com 0 26080454 2011-09-28 20:27:48
2870357 ranchosantafe-realestate.com 0 16143688 2011-09-28 20:27:50
2870358 rammstein-music.net 0 5048470 2011-09-28 20:27:55
2870359 700rifle.com 0 1630192 2011-09-28 20:27:56
2870360 missamericakids.com 0 No Rank 2011-09-28 20:27:58
2870361 ramen0073.com 0 No Rank 2011-09-28 20:28:00
2870362 ralsfinecatering.com 0 14187939 2011-09-28 20:28:02
2870363 bedfordneighbors.com 0 No Rank 2011-09-28 20:28:03
2870364 buyebooksdirect.com 0 No Rank 2011-09-28 20:28:03
2870365 rainlehmitz.de 0 No Rank 2011-09-28 20:28:10
2870366 rainforestcuisine.net 0 No Rank 2011-09-28 20:28:10
2870367 admin.clubbrugge.be 0 156909 2011-09-28 20:28:12
2870368 railway-station.berlin.germany.infostation.tel 0 1544807 2011-09-28 20:28:16
2870369 railroadkeys.com 0 No Rank 2011-09-28 20:28:17
2870370 bedfordestates.net 0 No Rank 2011-09-28 20:28:19
2870371 ragdollbreedclub.org 0 No Rank 2011-09-28 20:28:22
2870372 rafalmulka.pl 0 No Rank 2011-09-28 20:28:26
2870373 bedfordbudgetskips.co.uk 0 No Rank 2011-09-28 20:28:28
2870374 radonleaders.net 0 No Rank 2011-09-28 20:28:31
2870375 radiusmachine.com 0 No Rank 2011-09-28 20:28:32
2870376 blog.blenderbox.com 0 415759 2011-09-28 20:28:32
2870377 keepingupathome.com 0 2521093 2011-09-28 20:28:40
2870378 radioroompdx.com 0 10589408 2011-09-28 20:28:40
2870379 camelotniteclub.com 0 No Rank 2011-09-28 20:28:44
2870380 radiomenci.com 0 13404826 2011-09-28 20:28:45
2870381 shapeupville.articlealley.com 0 4223 2011-09-28 20:28:45
2870382 radiomadufm.com 0 2833937 2011-09-28 20:28:50
2870383 radiofiel.com.ar 0 No Rank 2011-09-28 20:28:52
2870384 bedfordshiretarotreading.co.uk 0 No Rank 2011-09-28 20:28:53
2870385 bmtbd.uct.edu.vn 0 345233 2011-09-28 20:28:59
2870386 radiodirectgroup.com 0 No Rank 2011-09-28 20:29:00
2870387 independenttech.com 0 20850275 2011-09-28 20:29:00
2870388 amazingbuilding.com 0 10017327 2011-09-28 20:29:01
2870389 forums.yperochi.com 0 1346843 2011-09-28 20:29:02
2870390 radioelmo.com 0 6871494 2011-09-28 20:29:03
2870391 radiodevrolijkekoster.nl 0 No Rank 2011-09-28 20:29:08
2870392 w64717.s71.chinaccnet.cn 0 109884 2011-09-28 20:29:09
2870393 bedfordsharks.org 0 No Rank 2011-09-28 20:29:12
2870394 xykonconsulting.com 0 No Rank 2011-09-28 20:29:18
2870395 info.lulong.gov.cn 0 6095530 2011-09-28 20:29:21
2870396 radiobandwagon.com 0 15797801 2011-09-28 20:29:23
2870397 dongabank.com 0 5835396 2011-09-28 20:29:23
2870398 group.zaidimai.web44.net 0 36785 2011-09-28 20:29:27
2870399 klondikeplayboy.com 0 18424095 2011-09-28 20:29:28
2870400 aa-nails.ch 0 No Rank 2011-09-28 20:29:33
2870401 radio-cajla.com 0 No Rank 2011-09-28 20:29:35
2870402 takesupplychain.com 0 3594706 2011-09-28 20:29:35
2870403 radioarcoiristj.tk 0 No Rank 2011-09-28 20:29:39
2870404 europeanactress.com 0 No Rank 2011-09-28 20:29:41
2870405 centerforpilates.com 0 No Rank 2011-09-28 20:29:41
2870406 raddabarnen.ax 0 17193444 2011-09-28 20:29:51
2870407 rackavenue.com 0 5955890 2011-09-28 20:29:53
2870408 chattanooga-gas.com 0 No Rank 2011-09-28 20:30:01
2870409 vintagebladesus.com 0 No Rank 2011-09-28 20:30:21
2870410 bedframesforsale.org 0 23883988 2011-09-28 20:30:28
2870411 raceenginetechnology.com 0 No Rank 2011-09-28 20:30:28
2870412 51sinojob.com 0 No Rank 2011-09-28 20:30:28
2870413 budgethotelhunt.com 0 7567504 2011-09-28 20:30:29
2870414 1365car.enews.zaidimai.web44.net 0 36785 2011-09-28 20:30:30
2870415 stemcelltechnologies.org 0 18968992 2011-09-28 20:30:31
2870416 rachelscry.org 0 No Rank 2011-09-28 20:30:34
2870417 free-pragard.forumth.com 0 151874 2011-09-28 20:30:36
2870418 r2truckinspections.com 0 No Rank 2011-09-28 20:30:44
2870419 quransoft.com 0 No Rank 2011-09-28 20:30:45
2870420 real-earnings.com 0 2073294 2011-09-28 20:30:49
2870421 quivera.net 0 No Rank 2011-09-28 20:30:54
2870422 samorzad.wszib.edu.pl 0 191918 2011-09-28 20:30:54
2870423 quotesfrominsurance.com 0 12769810 2011-09-28 20:30:55
2870424 quitsmokin.info 0 15196067 2011-09-28 20:31:01
2870425 quinnsa.com 0 No Rank 2011-09-28 20:31:02
2870426 treeoflifestore.net 0 No Rank 2011-09-28 20:31:04
2870427 abroadtour.net 0 No Rank 2011-09-28 20:31:05
2870428 austincrossing.com 0 23109724 2011-09-28 20:31:07
2870429 quickchills.com 0 No Rank 2011-09-28 20:31:12
2870430 contactmagazine.com 0 4550939 2011-09-28 20:31:13
2870431 aacmatsuri.com 0 14964998 2011-09-28 20:31:14
2870432 quest-sdm.com 0 No Rank 2011-09-28 20:31:18
2870433 queensborosda.org 0 No Rank 2011-09-28 20:31:20
2870434 pioneermustangs.com 0 No Rank 2011-09-28 20:31:24
2870435 queenofheartscostumeideas.com 0 2423499 2011-09-28 20:31:26
2870436 basefitmass.com 0 No Rank 2011-09-28 20:31:30
2870437 quarterlifelady.com 0 6493719 2011-09-28 20:31:36
2870438 quantec.media.pl 0 58317 2011-09-28 20:31:36
2870439 i.furin.misty.ne.jp 0 25762 2011-09-28 20:31:43
2870440 quacert.hu 0 No Rank 2011-09-28 20:31:46
2870441 abpleisure.co.uk 0 12689694 2011-09-28 20:31:51
2870442 qatar-dating.com 0 No Rank 2011-09-28 20:31:51
2870443 q8-paaet.com 0 No Rank 2011-09-28 20:32:00
2870444 qastockmarket.com 0 28209508 2011-09-28 20:32:02
2870445 helimodelrc.com 0 No Rank 2011-09-28 20:32:02
2870446 q-swi.net 0 4044563 2011-09-28 20:32:09
2870447 pushking.eu 0 23226478 2011-09-28 20:32:11
2870448 basedjs.com 0 No Rank 2011-09-28 20:32:16
2870449 pupilek.of.pl 0 117176 2011-09-28 20:32:22
2870450 pulsa-smart.com 0 No Rank 2011-09-28 20:32:29
2870451 basementadditions.com 0 No Rank 2011-09-28 20:32:31
2870452 puls-rate.com 0 No Rank 2011-09-28 20:32:36
2870453 pulbrookandgould.com 0 25850273 2011-09-28 20:32:43
2870454 puffinlv.com 0 19512342 2011-09-28 20:32:50
2870455 puertoricoautoappraisers.com 0 No Rank 2011-09-28 20:32:59
2870456 puddlejumpercharters.com 0 No Rank 2011-09-28 20:33:08
2870457 basementsottawa.com 0 No Rank 2011-09-28 20:33:11
2870458 publicidadentucelular.com 0 12018025 2011-09-28 20:33:30
2870459 ptdeutermann.com 0 13063867 2011-09-28 20:33:36
2870460 lowellvelasq53.insanejournal.com 0 5024 2011-09-28 20:33:37
2870461 ptcrb.info 0 No Rank 2011-09-28 20:33:43
2870462 basementsmontreal.com 0 No Rank 2011-09-28 20:33:46
2870463 rscmme.com 0 5195285 2011-09-28 20:33:47
2870464 pt-photos.com 0 No Rank 2011-09-28 20:33:49
2870465 basementsupermarket.com 0 No Rank 2011-09-28 20:33:56
2870466 oct.org.nz 0 No Rank 2011-09-28 20:34:00
2870467 weddingcakespictures.buyqm.com 0 1553568 2011-09-28 20:34:04
2870468 easyrug.com 0 15102332 2011-09-28 20:34:05
2870469 pssst.qc.ca 0 25079752 2011-09-28 20:34:15
2870470 psikoloji-psikiyatri.com 0 1393737 2011-09-28 20:34:24
2870471 denispage.com 0 No Rank 2011-09-28 20:34:25
2870472 basemoguljunkies.com 0 14313645 2011-09-28 20:34:29
2870473 pruning.org 0 1565367 2011-09-28 20:34:31
2870474 prowaremovie.com 0 1975963 2011-09-28 20:34:37
2870475 bahiaresort.com 0 14551143 2011-09-28 20:34:41
2870476 provillus-for-women.net 0 15333025 2011-09-28 20:34:46
2870477 karas.manga.com 0 222001 2011-09-28 20:34:51
2870478 faq.acf.hhs.gov 0 13319 2011-09-28 20:34:56
2870479 provick.ca 0 10517154 2011-09-28 20:34:57
2870480 travel.educdz.com 0 51288 2011-09-28 20:35:00
2870481 protektmouthguards.com 0 4086221 2011-09-28 20:35:04
2870482 sternwheelers.com 0 7429842 2011-09-28 20:35:08
2870483 protecode.com 0 4242737 2011-09-28 20:35:13
2870484 bashadventures.com 0 No Rank 2011-09-28 20:35:18
2870485 prospectpointrealty.com 0 No Rank 2011-09-28 20:35:20
2870486 iconictours.co.nz 0 No Rank 2011-09-28 20:35:20
2870487 williamdevans.com 0 No Rank 2011-09-28 20:35:23
2870488 prospa.info 0 25453222 2011-09-28 20:35:28
2870489 prose-blog.com 0 8414202 2011-09-28 20:35:35
2870490 astroboy.manga.com 0 222001 2011-09-28 20:35:41
2870491 propertyfinderph.com 0 4221539 2011-09-28 20:35:42
2870492 bashaani.12see.de 0 235148 2011-09-28 20:35:43
2870493 properace.com 0 No Rank 2011-09-28 20:35:48
2870494 propellor.ca 0 12484509 2011-09-28 20:35:55
2870495 ask.friendseat.com 0 55609 2011-09-28 20:35:58
2870496 profile.fanbox.com 0 3975 2011-09-28 20:36:04
2870497 propat.ru 0 No Rank 2011-09-28 20:36:05
2870498 etana.onsugar.com 0 2284 2011-09-28 20:36:06
2870499 propaneheatersguide.com 0 No Rank 2011-09-28 20:36:12
2870500 testi.in 0 No Rank 2011-09-28 20:36:15
2870501 mcgoverncenter.com 0 19549292 2011-09-28 20:36:18
2870502 promplast-kazan.ru 0 12243515 2011-09-28 20:36:22
2870503 pursepanache.com 0 No Rank 2011-09-28 20:36:24
2870504 bashanmusic.com 0 24031961 2011-09-28 20:36:24
2870505 heartlandlifts.com 0 6032193 2011-09-28 20:36:25
2870506 promedmgt.org 0 No Rank 2011-09-28 20:36:30
2870507 promarbledesign.com 0 28236546 2011-09-28 20:36:30
2870508 sandersfotoshop.nl 0 17175871 2011-09-28 20:36:33
2870509 projectorcom.ru 0 No Rank 2011-09-28 20:36:37
2870510 ehiprimarycare.com 0 28645389 2011-09-28 20:36:41
2870511 projectmine.org 0 11714086 2011-09-28 20:36:42
2870512 bashklip.ru 0 1704019 2011-09-28 20:36:43
2870513 signsonthecheap.com 0 380170 2011-09-28 20:36:47
2870514 projectlibertyusa.com 0 No Rank 2011-09-28 20:36:49
2870515 projectgsp.ru 0 7746481 2011-09-28 20:36:52
2870516 feltoninstitute.org 0 15703808 2011-09-28 20:36:57
2870517 project-monaghan.net 0 No Rank 2011-09-28 20:36:58
2870518 progressiveconcepts.org 0 No Rank 2011-09-28 20:37:00
2870519 progressiveautowatch.com 0 No Rank 2011-09-28 20:37:05
2870520 profinancialmgmt.com 0 17721390 2011-09-28 20:37:10
2870521 besthairtransplantation.com 0 9522126 2011-09-28 20:37:11
2870522 backupandbeyond.com 0 No Rank 2011-09-28 20:37:12
2870523 multimedia.ftpk.net 0 422812 2011-09-28 20:37:21
2870524 probilitypt.com 0 3403150 2011-09-28 20:37:21
2870525 professionalmakeupbrushset.com 0 No Rank 2011-09-28 20:37:23
2870526 privatetransfer.net 0 17550228 2011-09-28 20:37:32
2870527 digipassion.com 0 162554 2011-09-28 20:37:38
2870528 pda.forumponsel.com 0 108723 2011-09-28 20:37:38
2870529 privat-web-cam.de 0 3541852 2011-09-28 20:37:40
2870530 whenmenmustlive.com 0 No Rank 2011-09-28 20:37:40
2870531 prisonwithoutbars.com 0 No Rank 2011-09-28 20:37:42
2870532 primrosedesigninteriors.com 0 No Rank 2011-09-28 20:37:46
2870533 bestharmony.myfirstblog.net 0 692489 2011-09-28 20:37:49
2870534 primrose.in 0 2235818 2011-09-28 20:37:52
2870535 howtopottytrainapuppytogooutside.weebly.com 0 No Rank 2011-09-28 20:37:53
2870536 abysyrujoxo.roo7.biz 0 18258 2011-09-28 20:37:53
2870537 primitivepastimes.net 0 27505700 2011-09-28 20:37:53
2870538 primitiveimpressions.com 0 10903519 2011-09-28 20:38:00
2870539 primetimepits.com 0 No Rank 2011-09-28 20:38:02
2870540 bte.gep.mtss.gov.pt 0 619099 2011-09-28 20:38:07
2870541 shweb365.com 0 No Rank 2011-09-28 20:38:07
2870542 shiodome-theory.com 0 2851277 2011-09-28 20:38:14
2870543 hispanichealth.info 0 4494350 2011-09-28 20:38:19
2870544 catholicpeddler.com 0 No Rank 2011-09-28 20:38:22
2870545 access-board.org 0 26008732 2011-09-28 20:38:23
2870546 prime-time-swiss-watch.com 0 28862698 2011-09-28 20:38:28
2870547 static.cbslocal.com 0 852 2011-09-28 20:38:28
2870548 prime-point.com 0 3218667 2011-09-28 20:38:35
2870549 michael-wiemeier.de 0 No Rank 2011-09-28 20:38:36
2870550 price-drop-protector.com 0 20670508 2011-09-28 20:38:37
2870551 besthangouts.net 0 No Rank 2011-09-28 20:38:42
2870552 prettypolly.com 0 2676946 2011-09-28 20:38:43
2870553 preventinfection.net 0 No Rank 2011-09-28 20:38:44
2870554 cocoonnutrition.com 0 9865906 2011-09-28 20:38:44
2870555 prestontoddbradford.com 0 23998548 2011-09-28 20:38:50
2870556 prettiestparty.com 0 No Rank 2011-09-28 20:38:51
2870557 adeclaims.com 0 821844 2011-09-28 20:38:51
2870558 instellingen.cjp.nl 0 665136 2011-09-28 20:38:55
2870559 prestigefloors.ca 0 13105701 2011-09-28 20:38:58
2870560 presov.pathfinder.sk 0 9963778 2011-09-28 20:39:00
2870561 besthealthproductsonline.com 0 No Rank 2011-09-28 20:39:07
2870562 premiermedicalgroup.ca 0 No Rank 2011-09-28 20:39:07
2870563 preordermafiaii.com 0 No Rank 2011-09-28 20:39:08
2870564 premierchiropractic.ca 0 No Rank 2011-09-28 20:39:14
2870565 premier-radiology.net 0 No Rank 2011-09-28 20:39:14
2870566 pandore.vandr.co.jp 0 1569138 2011-09-28 20:39:15
2870567 files.byondhome.com 0 4780745 2011-09-28 20:39:20
2870568 preciousmetalsolutions.com 0 No Rank 2011-09-28 20:39:21
2870569 prairievisions.org 0 No Rank 2011-09-28 20:39:27
2870570 praetorianvalue.net 0 No Rank 2011-09-28 20:39:30
2870571 mp3z.info 0 No Rank 2011-09-28 20:39:34
2870572 somersaultfilms.com 0 No Rank 2011-09-28 20:39:35
2870573 prabhatudyog.net 0 6392428 2011-09-28 20:39:36
2870574 pr-z.ru 0 14393960 2011-09-28 20:39:40
2870575 adfoo.info 0 218898 2011-09-28 20:39:44
2870576 ppuhjr.com.pl 0 No Rank 2011-09-28 20:39:46
2870577 news.sextv.us 0 No Rank 2011-09-28 20:39:49
2870578 pplindia.org 0 1277176 2011-09-28 20:39:50
2870579 housecallsindia.com 0 10266759 2011-09-28 20:39:54
2870580 powerupstudios.com 0 3767523 2011-09-28 20:39:54
2870581 powertransco.com 0 No Rank 2011-09-28 20:39:57
2870582 powertoyotatempe.net 0 7821811 2011-09-28 20:40:02
2870583 zanemarshall11.deviantart.com 0 130 2011-09-28 20:40:06
2870584 locator.evhgear.com 0 1079442 2011-09-28 20:40:10
2870585 powersnooker.com 0 4962548 2011-09-28 20:40:12
2870586 powertoothbrushesinfo.com 0 12013416 2011-09-28 20:40:12
2870587 adwords.comuf.com 0 46286 2011-09-28 20:40:15
2870588 cart.clockparts.com 0 672992 2011-09-28 20:40:16
2870589 besthomedecorate.com 0 8682609 2011-09-28 20:40:17
2870590 powellandboyer.com 0 No Rank 2011-09-28 20:40:20
2870591 ghioceluldeaur.weblog.ro 0 32882 2011-09-28 20:40:21
2870592 powerhouse-online.dk 0 No Rank 2011-09-28 20:40:22
2870593 prime.downstate.edu 0 258475 2011-09-28 20:40:22
2870594 poulm.dk 0 2817980 2011-09-28 20:40:29
2870595 pottytrainingbasics.com 0 4840785 2011-09-28 20:40:30
2870596 postalperfect.net 0 No Rank 2011-09-28 20:40:37
2870597 positivepsychologie.ch 0 No Rank 2011-09-28 20:40:40
2870598 sturgishuntclub.com 0 No Rank 2011-09-28 20:40:42
2870599 sharetheglamour.com 0 No Rank 2011-09-28 20:40:44
2870600 portugaldigital.com.br 0 1011257 2011-09-28 20:40:45
2870601 vintagebladesus.net 0 No Rank 2011-09-28 20:40:49
2870602 portsofcare.com 0 No Rank 2011-09-28 20:40:51
2870603 zvezdegrandamuzika2011audicija.wordpress.com 0 No Rank 2011-09-28 20:40:55
2870604 portraitsbyrita.com 0 No Rank 2011-09-28 20:40:56
2870605 portlavacaautogroup.com 0 13786167 2011-09-28 20:40:58
2870606 grnata.net 0 26173448 2011-09-28 20:41:02
2870607 intranet.uccife.org 0 781047 2011-09-28 20:41:03
2870608 portajane.com 0 6667010 2011-09-28 20:41:05
2870609 besthomeinsurancedeal.com 0 No Rank 2011-09-28 20:41:05
2870610 portal.bpfk.gov.my 0 851310 2011-09-28 20:41:06
2870611 buffpolishgrind.com 0 17679999 2011-09-28 20:41:10
2870612 port-de-canet.com 0 4685219 2011-09-28 20:41:13
2870613 freesamplesarea.com 0 9275561 2011-09-28 20:41:14
2870614 adventitiously.com 0 No Rank 2011-09-28 20:41:14
2870615 popolonomade.org 0 17485707 2011-09-28 20:41:17
2870616 poolpatchpros.com 0 No Rank 2011-09-28 20:41:21
2870617 ballancomputers.com 0 23207292 2011-09-28 20:41:24
2870618 poolmastersashland.com 0 No Rank 2011-09-28 20:41:25
2870619 ww.charmfactory.com 0 129188 2011-09-28 20:41:28
2870620 pool.mikkola.se 0 No Rank 2011-09-28 20:41:31
2870621 oot.forumponsel.com 0 108723 2011-09-28 20:41:33
2870622 rockinontheroof.org 0 No Rank 2011-09-28 20:41:38
2870623 pondicherryhotels.org 0 2275061 2011-09-28 20:41:38
2870624 empowering-motivational-quotes.blogspot.com 0 No Rank 2011-09-28 20:41:45
2870625 pond-s-scapes.com 0 No Rank 2011-09-28 20:41:47
2870626 germangreenclub.com 0 2294290 2011-09-28 20:41:47
2870627 africadiving.co.za 0 648603 2011-09-28 20:41:49
2870628 battlezonegames.com 0 12669370 2011-09-28 20:41:53
2870629 pondokbangunan.com 0 12208612 2011-09-28 20:41:54
2870630 pomerelle-mtn.com 0 8389811 2011-09-28 20:41:57
2870631 myaccessorymall.com 0 19278381 2011-09-28 20:41:58
2870632 nhucau.ucoz.com 0 No Rank 2011-09-28 20:41:59
2870633 pomegranatedelhi.com 0 No Rank 2011-09-28 20:42:02
2870634 polymericsolutions.com 0 No Rank 2011-09-28 20:42:05
2870635 party-alternativ.de 0 No Rank 2011-09-28 20:42:11
2870636 polydickson.com 0 No Rank 2011-09-28 20:42:12
2870637 africatelecomitbiz.com 0 9133911 2011-09-28 20:42:13
2870638 catfishalleymag.com 0 7636739 2011-09-28 20:42:14
2870639 polygal.org 0 No Rank 2011-09-28 20:42:16
2870640 polosaleroom.com 0 11788148 2011-09-28 20:42:21
2870641 cheshirelibrary.org 0 4016353 2011-09-28 20:42:22
2870642 polkcountygenealogy.com 0 No Rank 2011-09-28 20:42:22
2870643 besthomes4u.net 0 No Rank 2011-09-28 20:42:28
2870644 zhongaofootball.com 0 5635017 2011-09-28 20:42:29
2870645 polguide.pl 0 15519617 2011-09-28 20:42:30
2870646 pokertda.com 0 1909253 2011-09-28 20:42:37
2870647 poggerino.com 0 24239098 2011-09-28 20:42:41
2870648 poesiegarten.de 0 No Rank 2011-09-28 20:42:44
2870649 adminaddict.net 0 168829 2011-09-28 20:42:46
2870650 podiatricdermatology.com 0 No Rank 2011-09-28 20:42:48
2870651 thebigdirectory.org 0 2861178 2011-09-28 20:42:50
2870652 twinlivingtrees.org 0 No Rank 2011-09-28 20:42:51
2870653 podersonidero.com 0 No Rank 2011-09-28 20:42:53
2870654 canoe.co.cook.mn.us 0 2708087 2011-09-28 20:42:58
2870655 pmidpi.com 0 2939750 2011-09-28 20:43:00
2870656 ak-shady.50megs.com 0 25913 2011-09-28 20:43:02
2870657 bakerybabe.com 0 No Rank 2011-09-28 20:43:03
2870658 bestincest.blogviaje.com 0 73305 2011-09-28 20:43:06
2870659 plussizedyoga.com 0 No Rank 2011-09-28 20:43:06
2870660 ploverbamboohouse.com 0 11405077 2011-09-28 20:43:10
2870661 britanniavillas.net 0 8351859 2011-09-28 20:43:12
2870662 plotnikov.eu 0 No Rank 2011-09-28 20:43:14
2870663 apexplumbing.com 0 17480502 2011-09-28 20:43:16
2870664 plentifulcupcakerecipes.com 0 No Rank 2011-09-28 20:43:22
2870665 pleegzorgpuntlimburg.be 0 No Rank 2011-09-28 20:43:26
2870666 bestinbellaire.com 0 No Rank 2011-09-28 20:43:27
2870667 atomgroom.com 0 3295684 2011-09-28 20:43:28
2870668 pleasinghome.com 0 5021922 2011-09-28 20:43:32
2870669 plazmamakinasi.com 0 No Rank 2011-09-28 20:43:35
2870670 plaza-restaurant.com 0 No Rank 2011-09-28 20:43:37
2870671 playforekidspa.com 0 No Rank 2011-09-28 20:43:42
2870672 playvice.com 0 12215386 2011-09-28 20:43:42
2870673 scandalsnappers.com 0 1346353 2011-09-28 20:43:42
2870674 platinumcollectionfurniture.com 0 No Rank 2011-09-28 20:43:49
2870675 napcon2010.com 0 14473530 2011-09-28 20:43:50
2870676 agentscape.org 0 983790 2011-09-28 20:43:51
2870677 platinoweb.com 0 463894 2011-09-28 20:43:58
2870678 plateauenergy.com 0 No Rank 2011-09-28 20:44:00
2870679 plasticmoon.free.fr 0 207 2011-09-28 20:44:05
2870680 shanghai.piaocn.com 0 119255 2011-09-28 20:44:08
2870681 plantationlawnmaintenance.com 0 No Rank 2011-09-28 20:44:10
2870682 plantandpipeline.com 0 No Rank 2011-09-28 20:44:13
2870683 sintax.co.uk 0 No Rank 2011-09-28 20:44:15
2870684 september.whereisithot.com 0 No Rank 2011-09-28 20:44:17
2870685 planokc.org 0 No Rank 2011-09-28 20:44:17
2870686 planocosmeticsurgeon.com 0 No Rank 2011-09-28 20:44:19
2870687 berylyoung.com 0 No Rank 2011-09-28 20:44:20
2870688 fitzcustomboats.com 0 No Rank 2011-09-28 20:44:21
2870689 andyblackpoker.com 0 16615258 2011-09-28 20:44:24
2870690 planetune.com 0 No Rank 2011-09-28 20:44:24
2870691 aimlesslychasing.com 0 3867417 2011-09-28 20:44:24
2870692 pkunair.com 0 No Rank 2011-09-28 20:44:32
2870693 radio-alternativ.de 0 No Rank 2011-09-28 20:44:34
2870694 howtoloseweightfast-e20.com 0 No Rank 2011-09-28 20:44:34
2870695 planetpeople.pt 0 No Rank 2011-09-28 20:44:34
2870696 pjposadzki.pl 0 No Rank 2011-09-28 20:44:42
2870697 hpnotebookmemory.blogspot.com 0 No Rank 2011-09-28 20:44:42
2870698 pixlife.org 0 8199320 2011-09-28 20:44:45
2870699 lenskerratt.0catch.com 0 54298 2011-09-28 20:44:46
2870700 giaiphapmanguonmo.com 0 11859677 2011-09-28 20:44:49
2870701 arnaudzeineldin.com 0 No Rank 2011-09-28 20:44:50
2870702 pixela-3d.com 0 3721130 2011-09-28 20:44:51
2870703 pittsburghpahotels.net 0 No Rank 2011-09-28 20:44:54
2870704 sustainable-solutions.com 0 No Rank 2011-09-28 20:44:58
2870705 hydrowillys.com 0 5039174 2011-09-28 20:44:58
2870706 pittsburghexpatnetwork.org 0 No Rank 2011-09-28 20:45:00
2870707 pitstopsrc.com 0 No Rank 2011-09-28 20:45:05
2870708 bestindustrialvacuum.com 0 No Rank 2011-09-28 20:45:10
2870709 pitmagazine.com 0 22688930 2011-09-28 20:45:11
2870710 www2.stanbridge.edu 0 2165621 2011-09-28 20:45:12
2870711 piratefancydressuk.com 0 24238584 2011-09-28 20:45:16
2870712 airmaxgroup.com 0 2726453 2011-09-28 20:45:19
2870713 pinoyteach.com 0 18490440 2011-09-28 20:45:21
2870714 electricsupplywholesale.com 0 No Rank 2011-09-28 20:45:26
2870715 pinscherclub.ru 0 6715670 2011-09-28 20:45:26
2870716 nyfedeconomists.org 0 9790057 2011-09-28 20:45:30
2870717 pinoydental.com 0 4508122 2011-09-28 20:45:33
2870718 pinoypot.com 0 6641290 2011-09-28 20:45:35
2870719 pinnaclegroup.com 0 2002266 2011-09-28 20:45:38
2870720 goldcoastleader.com 0 No Rank 2011-09-28 20:45:41
2870721 stagnesparish.org 0 No Rank 2011-09-28 20:45:42
2870722 pinkminkband.com 0 23792738 2011-09-28 20:45:45
2870723 planeta.eltimon.com 0 1602449 2011-09-28 20:45:46
2870724 bestincome4retirement.com 0 No Rank 2011-09-28 20:45:48
2870725 pinkertonrealty.com 0 No Rank 2011-09-28 20:45:52
2870726 pinkmatic.com 0 5527525 2011-09-28 20:45:53
2870727 letsfurnish-bulgaria.com 0 21412424 2011-09-28 20:45:54
2870728 neshamahproject.org 0 No Rank 2011-09-28 20:45:55
2870729 stateofthenation.co.nz 0 No Rank 2011-09-28 20:45:55
2870730 pinellascpr.com 0 No Rank 2011-09-28 20:45:58
2870731 news.yperochi.com 0 1346843 2011-09-28 20:45:59
2870732 pinballdoctor.com 0 No Rank 2011-09-28 20:46:00
2870733 blog.mp3muzikdinle.net 0 221288 2011-09-28 20:46:00
2870734 pillowgram.biz 0 No Rank 2011-09-28 20:46:03
2870735 ucc1903.com 0 No Rank 2011-09-28 20:46:03
2870736 freewareme.com 0 138270 2011-09-28 20:46:04
2870737 bwcliffordcandy.com 0 729268 2011-09-28 20:46:04
2870738 pilalitos.com 0 28466846 2011-09-28 20:46:08
2870739 pignwhistlets.com 0 4534918 2011-09-28 20:46:12
2870740 pigeondeals.com 0 No Rank 2011-09-28 20:46:15
2870741 jmathworksheets.com 0 7153654 2011-09-28 20:46:16
2870742 pierremra.free.fr 0 207 2011-09-28 20:46:19
2870743 brushestobronze.com 0 No Rank 2011-09-28 20:46:26
2870744 jauat.com 0 No Rank 2011-09-28 20:46:26
2870745 zolofthelp.monsourlawfirm.com 0 5162870 2011-09-28 20:46:27
2870746 paibooncrane.com 0 No Rank 2011-09-28 20:46:34
2870747 may.whereisitsunny.com 0 23534544 2011-09-28 20:46:34
2870748 pianafilm.com 0 No Rank 2011-09-28 20:46:34
2870749 phyzex.com 0 18321666 2011-09-28 20:46:35
2870750 pshweb02.881903.com 0 25463 2011-09-28 20:46:39
2870751 photosofireland.net 0 9309699 2011-09-28 20:46:40
2870752 mathgamesforgrade2743.tumblr.com 0 No Rank 2011-09-28 20:46:40
2870753 phvtrailer.dk 0 No Rank 2011-09-28 20:46:43
2870754 photoshop-free.ru 0 4190019 2011-09-28 20:46:47
2870755 abendkleider-dortmund.de 0 No Rank 2011-09-28 20:46:47
2870756 photosbynate.com 0 No Rank 2011-09-28 20:46:48
2870757 villalaestancia.com 0 4601792 2011-09-28 20:46:49
2870758 photosbyalexandra.com 0 No Rank 2011-09-28 20:46:54
2870759 photographyforlife.net 0 No Rank 2011-09-28 20:46:54
2870760 bestlaptopstobuy.net 0 17046160 2011-09-28 20:46:58
2870761 fairviewlawnsprinkler.com 0 No Rank 2011-09-28 20:46:59
2870762 platinumweddings4u.com 0 No Rank 2011-09-28 20:47:00
2870763 photographybykarenrice.com 0 No Rank 2011-09-28 20:47:01
2870764 ww3.chqsoftware.net 0 9934461 2011-09-28 20:47:04
2870765 max.zaidimai.web44.net 0 36785 2011-09-28 20:47:05
2870766 photographieboutique.com 0 11945281 2011-09-28 20:47:06
2870767 phonecardtoday.com 0 18679667 2011-09-28 20:47:11
2870768 phoenixsystem.com 0 8263097 2011-09-28 20:47:11
2870769 cesarmillanlive.com 0 3459080 2011-09-28 20:47:11
2870770 areaborsa.com 0 3694295 2011-09-28 20:47:11
2870771 phoenixrisingftm.net 0 No Rank 2011-09-28 20:47:15
2870772 alexanderchambers.co.uk 0 24639577 2011-09-28 20:47:17
2870773 phoenixpaversealing.com 0 23792272 2011-09-28 20:47:17
2870774 phoebesrubberstamps.com 0 No Rank 2011-09-28 20:47:20
2870775 howtobecomeafamousactor.com 0 22343504 2011-09-28 20:47:22
2870776 harmonywomen.com 0 No Rank 2011-09-28 20:47:23
2870777 phmac.com 0 No Rank 2011-09-28 20:47:23
2870778 dan-kollegium-sh.de 0 No Rank 2011-09-28 20:47:26
2870779 phoenixbioenergyusa.com 0 25085405 2011-09-28 20:47:33
2870780 bubblehash.org 0 22965055 2011-09-28 20:47:36
2870781 philosophynotes.info 0 No Rank 2011-09-28 20:47:38
2870782 phillysoulclassics.com 0 6799926 2011-09-28 20:47:40
2870783 butikbaby.com 0 4380065 2011-09-28 20:47:43
2870784 philly82nd.com 0 No Rank 2011-09-28 20:47:44
2870785 philharr.com 0 No Rank 2011-09-28 20:47:48
2870786 bestlcdledtv.net 0 23962767 2011-09-28 20:47:49
2870787 alltropicalfish.com 0 493943 2011-09-28 20:47:50
2870788 frery.russerialy.ru 0 2690314 2011-09-28 20:47:50
2870789 philembassy-uk.org 0 1305498 2011-09-28 20:47:50
2870790 franklingolfrentals.com 0 No Rank 2011-09-28 20:47:55
2870791 phen-d.com 0 3085503 2011-09-28 20:47:56
2870792 blueoaktraining.com 0 17239098 2011-09-28 20:48:01
2870793 sharepointkevin.com 0 No Rank 2011-09-28 20:48:07
2870794 tl-ent.forumotion.com 0 2440 2011-09-28 20:48:07
2870795 phd-capital.com 0 No Rank 2011-09-28 20:48:08
2870796 bestlocationhotels.com 0 2123465 2011-09-28 20:48:08
2870797 allthingswomen.manaonpatrol.com 0 13412874 2011-09-28 20:48:09
2870798 the-flowerbox.com 0 23812244 2011-09-28 20:48:10
2870799 phcfw.org 0 No Rank 2011-09-28 20:48:11
2870800 pharoport.com 0 14794878 2011-09-28 20:48:13
2870801 pgilchrist.com 0 No Rank 2011-09-28 20:48:18
2870802 lipscar.info 0 No Rank 2011-09-28 20:48:18
2870803 petroleumevaluator.com 0 No Rank 2011-09-28 20:48:21
2870804 thetopperstopper.com 0 No Rank 2011-09-28 20:48:21
2870805 petrazg.pl 0 No Rank 2011-09-28 20:48:26
2870806 petpal.info 0 No Rank 2011-09-28 20:48:27
2870807 kouinine.ahlamontada.com 0 2160 2011-09-28 20:48:29
2870808 aretenewzealand.com 0 No Rank 2011-09-28 20:48:31
2870809 petalpushersusa.com 0 No Rank 2011-09-28 20:48:38
2870810 peterteerling.com 0 No Rank 2011-09-28 20:48:39
2870811 revealedx.forummotion.com 0 15900 2011-09-28 20:48:41
2870812 janwood.org.uk 0 No Rank 2011-09-28 20:48:43
2870813 petaloargento.com 0 No Rank 2011-09-28 20:48:44
2870814 indexed.zaidimai.web44.net 0 36785 2011-09-28 20:48:44
2870815 odsp-consulting.com 0 No Rank 2011-09-28 20:48:44
2870816 classicmarquees.com 0 No Rank 2011-09-28 20:48:47
2870817 pervasivesolutions.net 0 13736372 2011-09-28 20:48:48
2870818 persuasivesermoncenter.com 0 No Rank 2011-09-28 20:48:49
2870819 challengebutter.com 0 20469254 2011-09-28 20:48:52
2870820 motorworldgroupmitsubishi.com 0 No Rank 2011-09-28 20:48:52
2870821 persisk.dk 0 No Rank 2011-09-28 20:48:55
2870822 mcoconstruction.net 0 No Rank 2011-09-28 20:48:56
2870823 bestmagictricks.info 0 No Rank 2011-09-28 20:48:57
2870824 pernilleskall.dk 0 No Rank 2011-09-28 20:48:59
2870825 perneppen.dk 0 No Rank 2011-09-28 20:49:00
2870826 chiverstrust.org.uk 0 No Rank 2011-09-28 20:49:03
2870827 mcheburashkina.livejournal.com 0 87 2011-09-28 20:49:05
2870828 perma-tech.com 0 23791715 2011-09-28 20:49:05
2870829 bbfeedstore.com 0 No Rank 2011-09-28 20:49:07
2870830 periyodiktablo.com 0 No Rank 2011-09-28 20:49:08
2870831 recuperarunamor.com 0 1712800 2011-09-28 20:49:08
2870832 intimateunashamed.dealshopcenter.com 0 No Rank 2011-09-28 20:49:08
2870833 allp2ptv.org 0 112871 2011-09-28 20:49:10
2870834 pericosrestaurant.com 0 14046112 2011-09-28 20:49:12
2870835 bestmovieconverter.com 0 27832707 2011-09-28 20:49:15
2870836 mpglandscapes.com 0 No Rank 2011-09-28 20:49:15
2870837 perfume-tester.com 0 No Rank 2011-09-28 20:49:17
2870838 perfumy-damskie.info 0 No Rank 2011-09-28 20:49:18
2870839 carlisleglass.co.uk 0 5420866 2011-09-28 20:49:25
2870840 perflective.com 0 No Rank 2011-09-28 20:49:25
2870841 perfekt-vekt.com 0 No Rank 2011-09-28 20:49:25
2870842 ldsmissionbikes.com 0 4834782 2011-09-28 20:49:30
2870843 korber.net 0 No Rank 2011-09-28 20:49:30
2870844 perfectpartyplannerfl.com 0 No Rank 2011-09-28 20:49:31
2870845 perfectpowersystems.com 0 No Rank 2011-09-28 20:49:33
2870846 pay-per-install.com 0 183455 2011-09-28 20:49:34
2870847 channelingstock.com 0 1779203 2011-09-28 20:49:35
2870848 trueflightcycleworks.com 0 19495430 2011-09-28 20:49:36
2870849 perfectesell.com 0 7393024 2011-09-28 20:49:38
2870850 perfecthomecologne.com 0 21087149 2011-09-28 20:49:38
2870851 jamphotographic.com 0 22230733 2011-09-28 20:49:40
2870852 news.can-zaman.com 0 No Rank 2011-09-28 20:49:41
2870853 perfectcostumes.com 0 No Rank 2011-09-28 20:49:45
2870854 perfectcomputereducation.com 0 16479560 2011-09-28 20:49:45
2870855 virongogog.linkarena.com 0 7444 2011-09-28 20:49:47
2870856 perfectbodyandhealth4life.com 0 No Rank 2011-09-28 20:49:53
2870857 abcsofinvesting.net 0 2078127 2011-09-28 20:49:55
2870858 perevod.lugansk.ua 0 No Rank 2011-09-28 20:49:56
2870859 pepp.ch 0 No Rank 2011-09-28 20:50:01
2870860 peoriagunshow.com 0 No Rank 2011-09-28 20:50:03
2870861 williamsgallery.com 0 16703507 2011-09-28 20:50:05
2870862 penwal.com 0 26587547 2011-09-28 20:50:08
2870863 pentacell.net 0 27216067 2011-09-28 20:50:14
2870864 infoboliches.com.ar 0 352067 2011-09-28 20:50:14
2870865 pensionatdalkopinge.se 0 No Rank 2011-09-28 20:50:15
2870866 forum.amilda.org 0 601400 2011-09-28 20:50:17
2870867 english.cepi.com.cn 0 2527408 2011-09-28 20:50:24
2870868 women.gastroenterologyliverandnutritionpdiatrics.wordpress.com 0 No Rank 2011-09-28 20:50:26
2870869 pelota-2010.fr 0 10414852 2011-09-28 20:50:26
2870870 metro-lastlight.net 0 No Rank 2011-09-28 20:50:27
2870871 pellemedicalskincare.com 0 No Rank 2011-09-28 20:50:27
2870872 bestofbothworldscatering.com 0 19472131 2011-09-28 20:50:33
2870873 sewanhaka.k12.ny.us 0 28165 2011-09-28 20:50:38
2870874 wearjdv.com 0 4249829 2011-09-28 20:50:50
2870875 transitionshair.com 0 No Rank 2011-09-28 20:50:52
2870876 peekabooonline.com 0 19612086 2011-09-28 20:50:58
2870877 peisey.com 0 1969912 2011-09-28 20:50:59
2870878 pedometersforsale.org 0 No Rank 2011-09-28 20:51:03
2870879 elaborate-bytes.com 0 19978452 2011-09-28 20:51:05
2870880 peces.tel 0 19107802 2011-09-28 20:51:05
2870881 spythem.com 0 No Rank 2011-09-28 20:51:10
2870882 pearls4us.com 0 3497863 2011-09-28 20:51:11
2870883 anclodge.dnsalias.org 0 780 2011-09-28 20:51:13
2870884 peaness.org 0 No Rank 2011-09-28 20:51:15
2870885 peakaddictionrecovery.org 0 5523039 2011-09-28 20:51:23
2870886 peacebypiecing.com 0 No Rank 2011-09-28 20:51:23
2870887 pdspub.net 0 No Rank 2011-09-28 20:51:30
2870888 pdxevent.com 0 13269426 2011-09-28 20:51:32
2870889 weather.news.linker.stahuj.to 0 21271012 2011-09-28 20:51:38
2870890 saltlakediamond.com 0 No Rank 2011-09-28 20:51:39
2870891 pda4game.com 0 No Rank 2011-09-28 20:51:40
2870892 kellyandcomac.co.uk 0 No Rank 2011-09-28 20:51:42
2870893 optimaitconsulting.com 0 5526581 2011-09-28 20:51:45
2870894 pcrw.org 0 No Rank 2011-09-28 20:51:47
2870895 pckaput.com 0 No Rank 2011-09-28 20:51:48
2870896 aeroinvironment.com 0 No Rank 2011-09-28 20:51:52
2870897 pcexpressions.com 0 7389692 2011-09-28 20:51:53
2870898 bestofwine.org 0 No Rank 2011-09-28 20:51:55
2870899 dayi-archi.myweb.yperochi.com 0 1346843 2011-09-28 20:51:55
2870900 pbgarden.com 0 2025707 2011-09-28 20:52:01
2870901 pbf.inturbo.lt 0 291970 2011-09-28 20:52:03
2870902 c.oshiete.goo.ne.jp 0 118 2011-09-28 20:52:12
2870903 paymecompany.com 0 No Rank 2011-09-28 20:52:12
2870904 paysagistest-antoine.com 0 No Rank 2011-09-28 20:52:13
2870905 payingptc.org 0 710344 2011-09-28 20:52:18
2870906 paydayscashadvance.us 0 2579633 2011-09-28 20:52:19
2870907 paydaymix.biz 0 No Rank 2011-09-28 20:52:26
2870908 pawsforfriendshipinc.org 0 16149205 2011-09-28 20:52:26
2870909 pavillioncatering.com 0 19527332 2011-09-28 20:52:32
2870910 saxlinghamgents.com 0 No Rank 2011-09-28 20:52:32
2870911 disneycoloringpages.net 0 No Rank 2011-09-28 20:52:34
2870912 walterewjohnson.insanejournal.com 0 5024 2011-09-28 20:52:34
2870913 bestofwines.org 0 No Rank 2011-09-28 20:52:38
2870914 torontovanlines.com 0 No Rank 2011-09-28 20:52:45
2870915 paulamcewen.com 0 11825661 2011-09-28 20:52:46
2870916 pattaya-pub-hotel.com 0 No Rank 2011-09-28 20:52:49
2870917 bestone-meter.com 0 No Rank 2011-09-28 20:52:55
2870918 patronen.dutchstart.nl 0 2204666 2011-09-28 20:52:55
2870919 www2.rutabletki.com 0 1345549 2011-09-28 20:52:55
2870920 patrickfhomes.com 0 No Rank 2011-09-28 20:52:57
2870921 patohome.com 0 3363152 2011-09-28 20:53:05
2870922 patnakababhouse.com 0 18891188 2011-09-28 20:53:07
2870923 bestor.ee 0 966928 2011-09-28 20:53:07
2870924 geraldqclane.bravejournal.com 0 13316 2011-09-28 20:53:08
2870925 androidbg.com 0 102942 2011-09-28 20:53:12
2870926 patioparadisellc.com 0 No Rank 2011-09-28 20:53:13
2870927 peerless-faucet.com 0 1690150 2011-09-28 20:53:13
2870928 pathwayguidancesystems.com 0 No Rank 2011-09-28 20:53:15
2870929 patblankenship.net 0 No Rank 2011-09-28 20:53:17
2870930 commission-central.zaidimai.web44.net 0 36785 2011-09-28 20:53:19
2870931 pastorgarrysermons.com 0 18838044 2011-09-28 20:53:22
2870932 pastech.net 0 No Rank 2011-09-28 20:53:26
2870933 douglasikmorris.sosblogs.com 0 12591 2011-09-28 20:53:31
2870934 passforge.com 0 No Rank 2011-09-28 20:53:33
2870935 pascarelligallery.net 0 No Rank 2011-09-28 20:53:38
2870936 anaknakal.org 0 12529195 2011-09-28 20:53:39
2870937 passion-net.fr 0 254016 2011-09-28 20:53:41
2870938 dayi-archi.myweb.sextv.us 0 No Rank 2011-09-28 20:53:41
2870939 actor.zaidimai.web44.net 0 36785 2011-09-28 20:53:45
2870940 zikweb.cmonjour.com 0 88539 2011-09-28 20:53:46
2870941 partyshowband.com 0 7923731 2011-09-28 20:53:48
2870942 partysupplyco.com 0 No Rank 2011-09-28 20:53:49
2870943 etszklm.weebly.com 0 No Rank 2011-09-28 20:53:53
2870944 partyboom.webaruhaza.eu 0 858985 2011-09-28 20:53:55
2870945 parokimkk.org 0 20040683 2011-09-28 20:54:00
2870946 partnertrans.zgora.pl 0 No Rank 2011-09-28 20:54:01
2870947 bjh.district279.org 0 663228 2011-09-28 20:54:05
2870948 parmapictures.com 0 No Rank 2011-09-28 20:54:10
2870949 industrialboilerrepairs.co.uk 0 No Rank 2011-09-28 20:54:13
2870950 parkwayboulder.com 0 12109324 2011-09-28 20:54:17
2870951 paroissecabestany.com 0 No Rank 2011-09-28 20:54:19
2870952 parkverbot.tel 0 No Rank 2011-09-28 20:54:23
2870953 parkingamwaycenter.com 0 No Rank 2011-09-28 20:54:31
2870954 parkettscout24.com 0 No Rank 2011-09-28 20:54:37
2870955 angielskie.donjon.com.pl 0 5738528 2011-09-28 20:54:37
2870956 parkinsonsinpa.com 0 No Rank 2011-09-28 20:54:38
2870957 cb920.blogspot.com 0 No Rank 2011-09-28 20:54:40
2870958 parkersrv.com 0 No Rank 2011-09-28 20:54:43
2870959 parkergraham.com 0 No Rank 2011-09-28 20:54:48
2870960 parkerpacificinc.com 0 No Rank 2011-09-28 20:54:49
2870961 parkavenueorlando.com 0 5024257 2011-09-28 20:54:53
2870962 parcelfriend.com 0 3972726 2011-09-28 20:54:55
2870963 activeluciddreamer.xanga.com 0 2752 2011-09-28 20:54:58
2870964 parafia.mbnp.fm.interia.pl 0 710 2011-09-28 20:55:02
2870965 parafiajedlinsk.pl 0 No Rank 2011-09-28 20:55:04
2870966 bestonlinelife.com 0 No Rank 2011-09-28 20:55:05
2870967 papillonmedispa.com 0 No Rank 2011-09-28 20:55:11
2870968 bestoutdoorchristmastreelights.com 0 No Rank 2011-09-28 20:55:13
2870969 papercakedesigns.com 0 10220413 2011-09-28 20:55:15
2870970 pantheraleos.com 0 23996293 2011-09-28 20:55:17
2870971 panoramarestauracja.pl 0 6455926 2011-09-28 20:55:22
2870972 panjea.com 0 1014416 2011-09-28 20:55:27
2870973 panic-attack-cures.com 0 No Rank 2011-09-28 20:55:28
2870974 panfire.com 0 No Rank 2011-09-28 20:55:33
2870975 panchakalyani.net 0 7225053 2011-09-28 20:55:38
2870976 bestpoolheater.org 0 No Rank 2011-09-28 20:55:39
2870977 pan4agent.com 0 No Rank 2011-09-28 20:55:41
2870978 animals.in.ua 0 2121160 2011-09-28 20:55:41
2870979 pamilax.com 0 No Rank 2011-09-28 20:55:44
2870980 pam57.com 0 No Rank 2011-09-28 20:55:46
2870981 palatini.com 0 289864 2011-09-28 20:55:54
2870982 ebookbuyonline.info 0 No Rank 2011-09-28 20:55:55
2870983 palosverdesestates.com 0 No Rank 2011-09-28 20:55:56
2870984 pakleniotoci.hr 0 19931109 2011-09-28 20:56:01
2870985 paionline.info 0 No Rank 2011-09-28 20:56:10
2870986 paintpastel.com 0 No Rank 2011-09-28 20:56:12
2870987 bestpostel.com 0 No Rank 2011-09-28 20:56:13
2870988 paintcolorhelp.com 0 No Rank 2011-09-28 20:56:18
2870989 paintedphoenix.com 0 No Rank 2011-09-28 20:56:22
2870990 bestprepaidcellphoneplans.org 0 3956904 2011-09-28 20:56:22
2870991 painespeak.com 0 No Rank 2011-09-28 20:56:24
2870992 falselashesonline.com 0 7760376 2011-09-28 20:56:26
2870993 pain-brayaud.com 0 No Rank 2011-09-28 20:56:29
2870994 pagemaker.dk 0 No Rank 2011-09-28 20:56:32
2870995 mnwaat.ahlamontada.com 0 2160 2011-09-28 20:56:36
2870996 pagalbasti.com 0 18585002 2011-09-28 20:56:37
2870997 paddlechallenge.com 0 No Rank 2011-09-28 20:56:39
2870998 packmantickets.com 0 23859641 2011-09-28 20:56:45
2870999 paddedcoathangers.com 0 No Rank 2011-09-28 20:56:48